This is the latest recevied weather packets stored in our database for station/object N0NPO. If no packets are shown the sender has not sent any weather packets the latest 10 day(s).
| Time | Temp. | Humidity | Pressure | Rain* | Wind** | Luminosity | Snow |
|---|---|---|---|---|---|---|---|
| 1778168961 | 11.67° C | 1% | 1015.6 hPa | 0 mm | - | 691 W/m² | - |
| 1778168658 | 12.22° C | 1% | 1015.5 hPa | 0 mm | - | 668 W/m² | - |
| 1778168355 | 11.67° C | 1% | 1015.6 hPa | 0 mm | - | 643 W/m² | - |
| 1778168052 | 11.67° C | 1% | 1015.6 hPa | 0 mm | - | 548 W/m² | - |
| 1778167748 | 10.56° C | 1% | 1015.5 hPa | 0 mm | - | 619 W/m² | - |
| 1778167444 | 11.67° C | 1% | 1015.4 hPa | 0 mm | - | 531 W/m² | - |
| 1778167140 | 10.56° C | 1% | 1015.6 hPa | 0 mm | - | 613 W/m² | - |
| 1778166837 | 10° C | 1% | 1015.7 hPa | 0 mm | - | 601 W/m² | - |
| 1778166534 | 10° C | 1% | 1015.7 hPa | 0 mm | - | 495 W/m² | - |
| 1778166231 | 10° C | 1% | 1015.8 hPa | 0 mm | - | 429 W/m² | - |
| 1778165927 | 10° C | 1% | 1015.8 hPa | 0 mm | - | 477 W/m² | - |
| 1778165623 | 9.44° C | 1% | 1015.5 hPa | 0 mm | - | 398 W/m² | - |
| 1778165320 | 9.44° C | 1% | 1015.6 hPa | 0 mm | - | 418 W/m² | - |
| 1778165018 | 8.33° C | 1% | 1015.5 hPa | 0 mm | - | 411 W/m² | - |
| 1778164714 | 7.78° C | 1% | 1015.6 hPa | 0 mm | - | 388 W/m² | - |
| 1778164411 | 7.78° C | 1% | 1015.4 hPa | 0 mm | - | 379 W/m² | - |
| 1778164107 | 7.22° C | 1% | 1015.6 hPa | 0 mm | - | 361 W/m² | - |
| 1778163804 | 6.67° C | 1% | 1015.3 hPa | 0 mm | - | 354 W/m² | - |
| 1778163501 | 7.22° C | 1% | 1015.3 hPa | 0 mm | - | 334 W/m² | - |
| 1778163197 | 6.11° C | 1% | 1015.5 hPa | 0 mm | - | 289 W/m² | - |
| 1778162894 | 6.11° C | 1% | 1015.4 hPa | 0 mm | - | 267 W/m² | - |
| 1778162591 | 5.56° C | 1% | 1015.2 hPa | 0 mm | - | 268 W/m² | - |
| 1778162289 | 5.56° C | 1% | 1015.4 hPa | 0 mm | - | 253 W/m² | - |
| 1778161985 | 5° C | 1% | 1015.4 hPa | 0 mm | - | 250 W/m² | - |
| 1778161682 | 4.44° C | 1% | 1015.3 hPa | 0 mm | - | 247 W/m² | - |
* Rain latest hour (hover to see other rain measurements)
** Current wind speed in m/s (hover to see current wind gust speed)